Weather History for Nashua, NH

Change the Weather History Date:

Sunday, December 16, 2012

  Actual Average Record
Temperature  
Mean Temperature 26 °F -  
Max Temperature 28 °F 36 °F 57 °F (1982)
Min Temperature 24 °F 19 °F 1 °F (1970)
Degree Days  
Heating Degree Days 39    
Moisture  
Dew Point 20 °F    
Average Humidity 80    
Maximum Humidity 93    
Minimum Humidity 59    
Precipitation  
Precipitation 0.00 in - - ()
Sea Level Pressure  
Sea Level Pressure 30.23 in    
Wind  
Wind Speed 3 mph (NNE)    
Max Wind Speed 10 mph    
Max Gust Speed -    
Visibility 5 miles    
Events Rain , Snow    
Averages and records for this station are not official NWS values.
T = Trace of Precipitation, MM = Missing Value Source: NWS Daily Summary

Daily Weather History Graph

Daily Weather History Graph

Search for Another Location

Airport:

Trip Planner

Search our weather history database for the weather conditions in past years. The results will help you decide how hot, cold, wet, or windy it might be!

Date:

Astronomy

Dec. 16, 2012 Rise Set
Actual Time 7:10 AM EST 4:13 PM EST
Civil Twilight 6:38 AM EST 4:45 PM EST
Nautical Twilight 6:02 AM EST 5:21 PM EST
Astronomical Twilight 5:28 AM EST 5:55 PM EST
Moon 9:38 AM EST (12/16) 8:28 PM EST (12/16)
Length of Visible Light 10h 07m
Length of Day
9h 02m
Waxing Crescent, 16% of the Moon is Illuminated
Dec 16
Waxing Crescent
Dec 20
First Quarter
Dec 28
Full
Jan 4
Last Quarter
Jan 11
New

Hourly Weather History & Observations

Time (EST) Temp. Windchill Dew Point Humidity Pressure Visibility Wind Dir Wind Speed Gust Speed Precip Events Conditions
12:51 AM 28.0 °F - 16.2 °F 61% 30.36 in 10.0 mi Calm Calm - N/A   Overcast
1:51 AM 27.1 °F - 15.1 °F 60% 30.35 in 10.0 mi Calm Calm - N/A   Overcast
3:51 AM 26.1 °F - 14.0 °F 60% 30.34 in 10.0 mi Calm Calm - N/A   Overcast
4:51 AM 26.1 °F - 14.0 °F 60% 30.34 in 10.0 mi Calm Calm - N/A   Overcast
5:25 AM 26.6 °F 22.6 °F 14.0 °F 59% 30.32 in 10.0 mi NE 3.5 mph - N/A   Overcast
6:51 AM 25.2 °F 20.9 °F 14.0 °F 63% 30.34 in 10.0 mi NE 3.5 mph - N/A   Overcast
7:51 AM 25.2 °F - 14.0 °F 63% 30.32 in 10.0 mi Calm Calm - N/A   Overcast
8:51 AM 25.2 °F 20.9 °F 13.1 °F 60% 30.35 in 10.0 mi NNE 3.5 mph - N/A   Overcast
9:51 AM 25.2 °F 18.3 °F 14.0 °F 63% 30.34 in 10.0 mi ENE 5.8 mph - N/A   Overcast
10:51 AM 26.1 °F 19.4 °F 15.1 °F 63% 30.31 in 10.0 mi NE 5.8 mph - N/A   Overcast
11:51 AM 26.1 °F - 16.2 °F 66% 30.28 in 10.0 mi Calm Calm - N/A   Overcast
12:51 PM 26.1 °F 18.4 °F 19.0 °F 75% 30.26 in 3.0 mi North 6.9 mph - 0.00 in   Overcast
12:58 PM 24.8 °F 19.1 °F 19.4 °F 80% 30.24 in 2.0 mi NNE 4.6 mph - 0.00 in   Overcast
1:13 PM 24.8 °F 19.1 °F 19.4 °F 80% 30.24 in 1.0 mi Variable 4.6 mph - 0.00 in Snow Light Snow
1:51 PM 24.1 °F 17.0 °F 21.0 °F 88% 30.24 in 1.5 mi NNE 5.8 mph - 0.00 in   Overcast
2:51 PM 25.2 °F 19.5 °F 21.0 °F 84% 30.23 in 2.5 mi North 4.6 mph - 0.00 in Snow Light Snow
3:51 PM 24.1 °F 18.2 °F 21.0 °F 88% 30.22 in 1.2 mi North 4.6 mph - 0.00 in   Overcast
4:15 PM 24.8 °F 19.1 °F 21.2 °F 86% 30.19 in 1.5 mi NNE 4.6 mph - 0.00 in Snow Light Snow
4:51 PM 24.1 °F 19.7 °F 22.1 °F 92% 30.20 in 2.0 mi North 3.5 mph - 0.00 in Snow Light Snow
5:51 PM 25.2 °F 19.5 °F 22.1 °F 88% 30.20 in 3.0 mi North 4.6 mph - 0.00 in   Overcast
6:06 PM 24.8 °F - 21.2 °F 86% 30.18 in 2.5 mi Calm Calm - 0.00 in   Overcast
6:18 PM 24.8 °F 19.1 °F 21.2 °F 86% 30.18 in 1.5 mi North 4.6 mph - 0.00 in   Overcast
6:36 PM 24.8 °F - 21.2 °F 86% 30.17 in 2.5 mi Calm Calm - 0.00 in   Overcast
6:51 PM 25.2 °F - 23.0 °F 91% 30.18 in 2.0 mi Calm Calm - 0.00 in   Mostly Cloudy
7:51 PM 25.2 °F 19.5 °F 23.0 °F 91% 30.17 in 3.0 mi North 4.6 mph - 0.00 in   Mostly Cloudy
7:58 PM 24.8 °F - 23.0 °F 93% 30.16 in 2.5 mi Calm Calm - 0.00 in Rain Light Freezing Rain
8:05 PM 24.8 °F 17.9 °F 23.0 °F 93% 30.16 in 3.0 mi North 5.8 mph - 0.00 in Rain Light Freezing Rain
8:13 PM 24.8 °F 17.9 °F 23.0 °F 93% 30.16 in 2.5 mi North 5.8 mph - 0.00 in Rain Light Freezing Rain
8:51 PM 25.2 °F 19.5 °F 23.0 °F 91% 30.16 in 2.0 mi North 4.6 mph - 0.00 in Rain Light Freezing Rain
9:06 PM 24.8 °F 16.9 °F 23.0 °F 93% 30.14 in 3.0 mi North 6.9 mph - 0.00 in Rain Light Freezing Rain
9:51 PM 25.2 °F 17.3 °F 22.1 °F 88% 30.17 in 3.0 mi NNE 6.9 mph - 0.00 in Rain Light Freezing Rain
10:07 PM 24.8 °F 19.1 °F 23.0 °F 93% 30.15 in 3.0 mi Variable 4.6 mph - 0.00 in Rain Light Freezing Rain
10:22 PM 24.8 °F 14.6 °F 23.0 °F 93% 30.15 in 2.5 mi North 10.4 mph - 0.00 in Rain Light Freezing Rain
10:40 PM 24.8 °F 17.9 °F 23.0 °F 93% 30.15 in 2.5 mi NNE 5.8 mph - 0.00 in   Mostly Cloudy
10:51 PM 25.2 °F 18.3 °F 23.0 °F 91% 30.16 in 3.0 mi Variable 5.8 mph - 0.00 in   Mostly Cloudy
11:16 PM 24.8 °F 19.1 °F 21.2 °F 86% 30.14 in 3.0 mi NNE 4.6 mph - 0.00 in Rain Light Freezing Rain
11:51 PM 25.2 °F 19.5 °F 22.1 °F 88% 30.14 in 5.0 mi North 4.6 mph - 0.00 in Rain Light Freezing Rain